This demonstration page uses our WeatherBlox Daily Observations layout. Learn more.

Left ArrowRight Arrow

Hourly Observations for August 24, 2022

Temp ( °F °C ) Dew Point ( °F °C ) Humidity (%) Winds ( mph kmh ) Pressure ( in mb ) Visibility ( mi km ) Precip ( " mm )
12:52 am 00:52 Clear 69 20.6 62 16.7 78 78 SE 6 9 29.98 1015 10 16 0.00 0.00
1:52 am 01:52 Clear 69 20.6 63 17.2 81 81 SSE 5 7 29.98 1015 10 16 0.00 0.00
2:52 am 02:52 Clear 68 20 63 17.2 84 84 SE 3 6 29.99 1016 10 16 0.00 0.00
3:52 am 03:52 Mostly Cloudy 66 18.9 63 17.2 90 90 SE 6 9 29.99 1016 10 16 0.00 0.00
4:52 am 04:52 Mostly Cloudy 68 20 64 17.8 87 87 SE 5 7 30.00 1016 10 16 0.00 0.00
5:52 am 05:52 Mostly Cloudy 68 20 64 17.8 87 87 SE 6 9 30.00 1016 10 16 0.00 0.00
6:52 am 06:52 Cloudy 68 20 64 17.8 87 87 SE 3 6 30.01 1016 10 16 0.00 0.00
7:52 am 07:52 Mostly Cloudy 70 21.1 65 18.3 84 84 SSE 7 11 30.02 1017 10 16 0.00 0.00
8:52 am 08:52 Mostly Cloudy 74 23.3 65 18.3 74 74 SSE 8 13 30.03 1017 10 16 0.00 0.00
9:52 am 09:52 Sunny 76 24.4 64 17.8 67 67 SSE 8 13 30.04 1017 10 16 0.00 0.00
10:52 am 10:52 Sunny 79 26.1 64 17.8 60 60 SE 7 11 30.04 1017 10 16 0.00 0.00
11:52 am 11:52 Sunny 83 28.3 62 16.7 49 49 VRB 6 9 30.04 1017 10 16 0.00 0.00
12:52 pm 12:52 Mostly Sunny 83 28.3 60 15.6 46 46 VRB 6 9 30.04 1017 10 16 0.00 0.00
1:52 pm 13:52 Mostly Cloudy 82 27.8 60 15.6 47 47 VRB 6 9 30.03 1017 10 16 0.00 0.00
2:52 pm 14:52 Partly Cloudy 84 28.9 58 14.4 41 41 SE 5 7 30.02 1017 10 16 0.00 0.00
3:52 pm 15:52 Sunny 85 29.4 57 13.9 39 39 Calm 30.00 1016 10 16 0.00 0.00
4:52 pm 16:52 Mostly Cloudy 83 28.3 58 14.4 43 43 E 7 11 29.99 1016 10 16 0.00 0.00
5:52 pm 17:52 Sunny 85 29.4 60 15.6 43 43 NNW 7 11 29.98 1015 10 16 0.00 0.00
6:52 pm 18:52 Sunny 83 28.3 60 15.6 46 46 E 8 13 29.98 1015 10 16 0.00 0.00
7:52 pm 19:52 Sunny 80 26.7 61 16.1 52 52 ENE 7 11 29.98 1015 10 16 0.00 0.00
8:52 pm 20:52 Mostly Clear 77 25 62 16.7 60 60 ENE 8 13 30.00 1016 10 16 0.00 0.00
9:52 pm 21:52 Clear 72 22.2 63 17.2 73 73 E 6 9 30.02 1017 10 16 0.00 0.00
10:52 pm 22:52 Clear 73 22.8 62 16.7 68 68 ESE 6 9 30.03 1017 10 16 0.00 0.00
11:52 pm 23:52 Clear 71 21.7 61 16.1 70 70 SE 5 7 30.03 1017 10 16 0.00 0.00

Powered by AerisWeather